[[{"header":{"parameterUnit":"m.s-1","parameterCategory":1,"la1":30.2991,"la2":30.254,"lo1":-89.0895,"lo2":-89.0444,"dy":0.0017,"dx":0.0017,"nx":28,"ny":28,"refTime":"2025-05-16T03:00:00:Z","depth":0,"parameterNumber":2,"parameterNumberName":"U-component_of_WINDS"},"data":[0,0,0,0,0,0,0,0,0,0,0,0,0,0,0,0,0,0,0,0,0,0,0,0,0,0,0,0,0,0,0,0,0,0,0,0,0,0,0,0,0,0,0,0,0,0,0,0,0,0,0,0,0,0,0,0,0,0,1.3232,1.3232,0,1.3251,1.3252,1.3252,1.3244,1.3244,1.3243,1.3243,1.3262,1.3263,1.3264,0,0,0,0,0,0,0,0,0,0,0,0,0,1.3188,1.3189,1.3232,1.3232,1.3233,1.3251,1.3252,1.3252,1.3244,1.3244,1.3243,1.3242,1.3262,1.3263,1.3264,0,0,0,0,0,0,0,0,0,0,0,0,0,1.3207,1.3189,1.3232,1.3231,1.3231,1.3251,1.3252,1.3252,1.3244,1.3243,1.3243,1.3242,1.3261,1.3263,1.3264,1.3286,0,0,1.3268,1.3269,0,0,0,0,0,0,0,0,1.3206,1.3209,1.3231,1.3231,1.3231,1.3245,1.3243,1.3263,1.3244,1.3239,1.3243,1.3242,1.3257,1.3258,1.3264,1.3287,1.3288,1.3268,1.3269,1.327,1.327,0,0,0,0,0,0,0,1.3205,1.3208,1.324,1.3231,1.3231,1.3229,1.3231,1.3247,1.3252,1.324,1.3239,1.3241,1.3257,1.3262,1.3264,1.3288,1.3268,1.327,1.3271,1.3271,1.3331,1.3332,0,0,0,0,0,0,1.3204,1.3207,1.3239,1.324,1.3217,1.3231,1.3233,1.3241,1.3251,1.3252,1.3242,1.3241,1.326,1.3262,1.3265,1.3291,1.327,1.3271,1.3272,1.333,1.3331,1.3332,0,0,0,0,0,0,1.3203,1.3207,1.3238,1.3224,1.3227,1.3232,1.3241,1.3242,1.3247,1.3253,1.3254,1.3247,1.326,1.3263,1.3281,1.3292,1.3272,1.3273,1.3329,1.3331,1.3332,1.3345,0,0,0,0,0,0,1.3201,1.3206,1.3215,1.3224,1.3228,1.3255,1.3242,1.3243,1.325,1.3249,1.3258,1.3259,1.3259,1.3279,1.3282,1.3293,1.3274,1.3329,1.333,1.3331,1.3344,1.3347,1.3349,0,0,0,0,0,1.32,1.3218,1.3215,1.3219,1.3239,1.3255,1.3258,1.3258,1.3251,1.3259,1.3263,1.3259,1.329,1.3281,1.3285,1.3296,1.3328,1.333,1.3331,1.3342,1.3346,1.3349,0,0,0,0,0,0,1.321,1.3219,1.3216,1.3238,1.3246,1.3254,1.3265,1.3262,1.3272,1.3271,1.327,1.3273,1.3292,1.3296,1.3285,1.3318,1.3308,1.331,1.3315,1.3318,1.3321,1.332,1.3275,0,0,0,0,0,1.3215,1.3227,1.3234,1.3252,1.3257,1.326,1.3267,1.3267,1.3275,1.3278,1.3283,1.3292,1.3303,1.3311,1.3322,1.3344,1.3346,1.3354,1.3357,1.3359,1.3361,1.3373,1.3377,1.3338,1.3338,1.3338,0,0,1.3225,1.3231,1.3239,1.3255,1.3261,1.3274,1.3263,1.3277,1.3286,1.328,1.3298,1.3302,1.3311,1.3331,1.3341,1.3335,1.3372,1.3361,1.3363,1.3364,1.3375,1.3379,1.3382,1.3339,1.3339,1.3338,0,0,1.3249,1.3255,1.3271,1.3277,1.3287,1.3289,1.3293,1.3302,1.3304,1.3322,1.3318,1.3329,1.3349,1.3356,1.3362,1.3389,1.3385,1.3392,1.3406,1.3418,1.3421,1.3423,1.3433,1.3437,1.3394,1.3394,1.3394,0,1.326,1.3279,1.3279,1.3294,1.3301,1.3296,1.3312,1.3318,1.3331,1.3336,1.333,1.3355,1.3361,1.3383,1.3389,1.3394,1.3398,1.3391,1.342,1.3423,1.3426,1.3435,1.3438,1.3395,1.3395,1.3395,1.3395,0,1.3292,1.3306,1.3317,1.333,1.3338,1.3353,1.3356,1.3364,1.3363,1.3365,1.3384,1.339,1.3403,1.3408,1.3407,1.3429,1.3426,1.342,1.341,1.343,1.3439,1.3442,1.3396,1.3396,1.3396,1.3396,0,0,1.3324,1.3336,1.3341,1.3346,1.3357,1.3367,1.3382,1.3394,1.3401,1.341,1.3422,1.3439,1.3434,1.3441,1.344,1.3451,1.3472,1.3444,1.3444,1.3449,1.3497,1.3502,1.3506,1.3469,1.347,1.347,1.3496,0,1.3349,1.3376,1.3376,1.34,1.3412,1.3408,1.3421,1.3428,1.3431,1.3442,1.3445,1.3457,1.3449,1.3453,1.3463,1.3467,1.3481,1.3465,1.3481,1.3481,1.3479,1.351,1.3515,1.3539,1.35,1.35,1.3501,0,1.3382,1.3393,1.3418,1.3426,1.3432,1.3443,1.3454,1.3465,1.3473,1.3475,1.3482,1.348,1.3495,1.3484,1.3504,1.3493,1.35,1.3502,1.3503,1.3505,1.3492,1.3513,1.3547,1.3551,1.3506,1.3506,1.3505,0,1.3403,1.3423,1.3441,1.3446,1.3456,1.3464,1.3469,1.3477,1.3484,1.3494,1.3498,1.351,1.3516,1.3525,1.3526,1.3517,1.3546,1.3535,1.3548,1.3548,1.3554,1.3554,1.359,1.3558,1.3558,1.3558,1.3558,0,1.3431,1.3447,1.345,1.3461,1.3478,1.3479,1.3496,1.35,1.3507,1.3518,1.3515,1.3526,1.3526,1.3537,1.3538,1.3555,1.3558,1.3559,1.3559,1.356,1.356,1.3564,1.3562,1.3559,1.3559,1.3559,1.3558,0,1.3457,1.346,1.3479,1.3487,1.349,1.3502,1.3509,1.352,1.3522,1.3537,1.354,1.3544,1.3557,1.3559,1.3574,1.3574,1.3594,1.3593,1.3592,1.3592,1.3604,1.3603,1.3645,1.365,1.3614,1.3615,1.3615,0,1.3475,1.3487,1.3497,1.3505,1.351,1.3522,1.3529,1.353,1.3538,1.3549,1.3558,1.357,1.358,1.3601,1.3605,1.3616,1.3615,1.3629,1.3616,1.3616,1.3615,1.3614,1.3616,1.3631,1.3631,1.3632,1.3632,0,1.3507,1.3508,1.3519,1.3531,1.354,1.3549,1.3558,1.3564,1.3566,1.3575,1.3588,1.3596,1.3611,1.3623,1.3635,1.3639,1.3636,1.3636,1.3639,1.364,1.3639,1.364,1.3598,1.3635,1.3634,1.3634,1.3634,1.3634,1.353,1.354,1.3549,1.3561,1.3568,1.3576,1.3586,1.359,1.3601,1.3614,1.3613,1.3628,1.3636,1.3651,1.3656,1.3667,1.3663,1.3668,1.3669,1.367,1.3672,1.3637,1.3669,1.3669,1.3669,1.3669,1.3669,0,1.3561,1.3567,1.3578,1.359,1.36,1.3596,1.3606,1.3614,1.3627,1.3635,1.3645,1.366,1.3672,1.3677,1.3689,1.3697,1.3695,1.37,1.3699,1.37,1.3675,1.3671,1.37,1.37,1.37,1.37,1.37,1.37,1.3579,1.3597,1.3598,1.3619,1.3624,1.3639,1.3644,1.3652,1.3658,1.3675,1.3685,1.3688,1.3695,1.3707,1.3718,1.3719,1.3724,1.3729,1.3729,1.3705,1.3702,1.3699,1.3695,1.3729,1.373,1.3753,1.3754,1.3754]},{"header":{"parameterUnit":"m.s-1","parameterCategory":1,"la1":30.2991,"la2":30.254,"lo1":-89.0895,"lo2":-89.0444,"dy":0.0017,"dx":0.0017,"nx":28,"ny":28,"refTime":"2025-05-16T03:00:00:Z","depth":0,"parameterNumber":3,"parameterNumberName":"V-component_of_WINDS"},"data":[0,0,0,0,0,0,0,0,0,0,0,0,0,0,0,0,0,0,0,0,0,0,0,0,0,0,0,0,0,0,0,0,0,0,0,0,0,0,0,0,0,0,0,0,0,0,0,0,0,0,0,0,0,0,0,0,0,0,3.3218,3.3219,0,3.3252,3.3252,3.3252,3.3242,3.3241,3.3241,3.324,3.3271,3.3272,3.3273,0,0,0,0,0,0,0,0,0,0,0,0,0,3.3144,3.3145,3.3218,3.3219,3.3219,3.3252,3.3252,3.3252,3.3242,3.3241,3.3241,3.324,3.327,3.3272,3.3274,0,0,0,0,0,0,0,0,0,0,0,0,0,3.3176,3.3145,3.3218,3.3218,3.3218,3.3251,3.3252,3.3253,3.3242,3.3241,3.324,3.3239,3.3269,3.3272,3.3274,3.3308,0,0,3.328,3.3281,0,0,0,0,0,0,0,0,3.3174,3.3179,3.3218,3.3218,3.3219,3.3242,3.3237,3.3271,3.3243,3.3233,3.324,3.3239,3.3262,3.3264,3.3273,3.3309,3.3311,3.3281,3.3282,3.3283,3.3283,0,0,0,0,0,0,0,3.3172,3.3177,3.3231,3.3218,3.3219,3.3216,3.3219,3.3243,3.3253,3.3234,3.3233,3.3238,3.3262,3.3271,3.3273,3.3311,3.3281,3.3282,3.3284,3.3285,3.3379,3.338,0,0,0,0,0,0,3.317,3.3176,3.323,3.3232,3.3194,3.3218,3.3222,3.3235,3.3252,3.3254,3.3238,3.3237,3.3267,3.3271,3.3274,3.3317,3.3283,3.3285,3.3286,3.3378,3.338,3.3381,0,0,0,0,0,0,3.3168,3.3175,3.3229,3.3204,3.3211,3.322,3.3236,3.3236,3.3246,3.3256,3.3257,3.3246,3.3267,3.3271,3.33,3.3318,3.3286,3.3288,3.3377,3.3378,3.338,3.3402,0,0,0,0,0,0,3.3166,3.3175,3.3188,3.3204,3.3212,3.3255,3.3237,3.3238,3.325,3.3248,3.3263,3.3265,3.3266,3.3297,3.3303,3.332,3.329,3.3375,3.3377,3.338,3.3399,3.3404,3.3408,0,0,0,0,0,3.3164,3.3192,3.3189,3.3195,3.3229,3.3256,3.326,3.3263,3.3251,3.3265,3.3272,3.3264,3.3315,3.33,3.3306,3.3325,3.3374,3.3377,3.3379,3.3398,3.3403,3.3408,0,0,0,0,0,0,3.3175,3.3194,3.3191,3.3225,3.3239,3.3255,3.3272,3.3268,3.3285,3.3283,3.3283,3.3287,3.3317,3.3323,3.3307,3.336,3.3343,3.3347,3.3355,3.336,3.3364,3.3362,3.3291,0,0,0,0,0,3.3182,3.3204,3.3218,3.3247,3.3254,3.3262,3.3273,3.3274,3.3288,3.3294,3.3303,3.3316,3.3335,3.3348,3.3366,3.34,3.3404,3.3416,3.342,3.3424,3.3427,3.3448,3.3454,3.339,3.339,3.339,0,0,3.3196,3.3209,3.3222,3.3249,3.3261,3.3282,3.3267,3.329,3.3306,3.3297,3.3326,3.3333,3.3348,3.338,3.3395,3.3387,3.3446,3.3427,3.343,3.3432,3.3451,3.3457,3.3462,3.3392,3.3391,3.3391,0,0,3.3233,3.3244,3.327,3.3282,3.33,3.3305,3.3312,3.3328,3.3333,3.3362,3.3356,3.3375,3.3407,3.3419,3.3429,3.3471,3.3466,3.3477,3.3499,3.3519,3.3524,3.3529,3.3545,3.3551,3.348,3.3481,3.3481,0,3.3247,3.3281,3.3284,3.3308,3.3321,3.3316,3.3342,3.3353,3.3375,3.3384,3.3375,3.3417,3.3426,3.3462,3.3473,3.3481,3.3488,3.3476,3.3523,3.3528,3.3532,3.3548,3.3554,3.3482,3.3482,3.3482,3.3481,0,3.3298,3.3322,3.334,3.3365,3.3379,3.3404,3.3411,3.3425,3.3424,3.343,3.3461,3.3472,3.3493,3.3502,3.35,3.3538,3.3532,3.3523,3.3506,3.354,3.3555,3.356,3.3484,3.3483,3.3483,3.3483,0,0,3.3343,3.337,3.3376,3.3388,3.3408,3.3426,3.3451,3.3473,3.3486,3.3501,3.3523,3.3551,3.3544,3.3555,3.3555,3.3572,3.3607,3.3561,3.3562,3.357,3.3651,3.3658,3.3665,3.3604,3.3605,3.3606,3.365,0,3.3382,3.3428,3.3432,3.3473,3.3496,3.3491,3.3513,3.3528,3.3534,3.3553,3.356,3.3581,3.3568,3.3575,3.3592,3.36,3.3624,3.3596,3.3624,3.3624,3.3621,3.3673,3.3681,3.3722,3.3656,3.3657,3.3657,0,3.3434,3.3454,3.3498,3.3517,3.3526,3.3546,3.3567,3.3586,3.3602,3.3606,3.3619,3.3618,3.3643,3.3625,3.3661,3.3642,3.3653,3.3659,3.366,3.3664,3.3644,3.3679,3.3735,3.3742,3.3666,3.3665,3.3665,0,3.3464,3.3501,3.3533,3.3542,3.3565,3.3579,3.3589,3.3604,3.3618,3.3636,3.3645,3.3665,3.3677,3.3692,3.3696,3.3682,3.3732,3.3714,3.3736,3.3736,3.3747,3.3747,3.3808,3.3753,3.3753,3.3752,3.3752,0,3.3508,3.3535,3.3547,3.3566,3.3597,3.3601,3.3631,3.364,3.3654,3.3675,3.3671,3.3691,3.3694,3.3714,3.3717,3.3747,3.3751,3.3755,3.3756,3.3756,3.3756,3.3764,3.3762,3.3754,3.3754,3.3753,3.3753,0,3.3547,3.3555,3.359,3.3609,3.3615,3.3636,3.3652,3.3671,3.3677,3.3704,3.371,3.372,3.3744,3.3749,3.3776,3.3778,3.3814,3.3811,3.3809,3.381,3.3832,3.383,3.3901,3.3911,3.3849,3.3849,3.385,0,3.3575,3.3596,3.3619,3.3633,3.3644,3.3667,3.3682,3.3687,3.3702,3.3723,3.374,3.3763,3.3783,3.382,3.3829,3.3851,3.3849,3.3872,3.3852,3.3852,3.3851,3.385,3.3853,3.3876,3.3877,3.3878,3.3878,0,3.3625,3.3629,3.365,3.3675,3.3693,3.3711,3.3729,3.3741,3.3748,3.3765,3.379,3.3806,3.3835,3.3858,3.388,3.3889,3.3885,3.3884,3.3891,3.3892,3.3891,3.3893,3.3821,3.3883,3.3882,3.3882,3.3882,3.3882,3.366,3.368,3.3699,3.3724,3.3738,3.3756,3.3775,3.3785,3.3806,3.3832,3.3833,3.386,3.3877,3.3906,3.3917,3.3938,3.3931,3.3939,3.3942,3.3945,3.3947,3.3887,3.3941,3.3941,3.3941,3.3941,3.3941,0,3.3711,3.3724,3.3747,3.3773,3.3793,3.3789,3.3808,3.3825,3.385,3.3867,3.3886,3.3916,3.3939,3.3951,3.3974,3.3989,3.3988,3.3995,3.3994,3.3997,3.3952,3.3945,3.3996,3.3996,3.3996,3.3995,3.3995,3.3995,3.374,3.3773,3.378,3.382,3.3832,3.3861,3.3873,3.3889,3.3902,3.3936,3.3956,3.3964,3.3979,3.4004,3.4025,3.4027,3.4037,3.4045,3.4047,3.4005,3.4,3.3994,3.3988,3.4047,3.4047,3.409,3.4091,3.4091]}]]